This is the latest recevied weather packets stored in our database for station/object KG5MMT-15. If no packets are shown the sender has not sent any weather packets the latest 10 day(s).
| Time | Temp. | Humidity | Pressure | Rain* | Wind** | Luminosity | Snow |
|---|---|---|---|---|---|---|---|
| 1777318956 | 16.11° C | 22% | 0 hPa | 0 mm | - | - | - |
| 1777318656 | 16.11° C | 21% | 0 hPa | 0 mm | - | - | - |
| 1777318356 | 16.11° C | 22% | 0 hPa | 0 mm | - | - | - |
| 1777318056 | 15.56° C | 21% | 0 hPa | 0 mm | - | - | - |
| 1777317756 | 15.56° C | 21% | 0 hPa | 0 mm | - | - | - |
| 1777317456 | 15° C | 20% | 0 hPa | 0 mm | - | - | - |
| 1777317156 | 15.56° C | 22% | 0 hPa | 0 mm | - | - | - |
| 1777316856 | 16.11° C | 19% | 0 hPa | 0 mm | - | - | - |
| 1777316556 | 16.11° C | 19% | 0 hPa | 0 mm | - | - | - |
| 1777316256 | 15.56° C | 20% | 0 hPa | 0 mm | - | - | - |
| 1777315956 | 15° C | 21% | 0 hPa | 0 mm | - | - | - |
| 1777315656 | 16.11° C | 22% | 0 hPa | 0 mm | - | - | - |
| 1777315356 | 16.11° C | 20% | 0 hPa | 0 mm | - | - | - |
| 1777315056 | 16.67° C | 22% | 0 hPa | 0 mm | - | - | - |
| 1777314756 | 16.11° C | 22% | 0 hPa | 0 mm | - | - | - |
| 1777314456 | 15.56° C | 21% | 0 hPa | 0 mm | - | - | - |
| 1777314156 | 16.11° C | 22% | 0 hPa | 0 mm | - | - | - |
| 1777313856 | 16.11° C | 21% | 0 hPa | 0 mm | - | - | - |
| 1777313556 | 15.56° C | 23% | 0 hPa | 0 mm | - | - | - |
| 1777313256 | 15.56° C | 25% | 0 hPa | 0 mm | - | - | - |
| 1777312956 | 14.44° C | 25% | 0 hPa | 0 mm | - | - | - |
| 1777312656 | 14.44° C | 24% | 0 hPa | 0 mm | - | - | - |
| 1777312356 | 15° C | 25% | 0 hPa | 0 mm | - | - | - |
| 1777312056 | 15° C | 24% | 0 hPa | 0 mm | - | - | - |
| 1777311756 | 13.89° C | 23% | 0 hPa | 0 mm | - | - | - |
* Rain latest hour (hover to see other rain measurements)
** Current wind speed in m/s (hover to see current wind gust speed)